Flag for Germany Weather past 2 weeks in Gross-Gerau, Hesse, Germany

Now
72 °F

Partly sunny.


Feels Like: 75 °F
Forecast: 61 / 77 °F
Wind: 8 mph from North

Location: Frankfurt-M-Flughafen Airport

Current Time: Jul 30, 2014 at 5:33:25 PM

Latest Report: Jul 30, 2014 at 4:50 PM


Visibility: N/A

Pressure: 29.89 "Hg

Humidity: 69%

Dew point: 61 °F

Location of Gross-GerauLocation

Historic Weather in Gross-Gerau — Graph

°F

Gross-Gerau temperature yesterday

Maximum temperature yesterday: 79 °F (at 4:50 PM)
Minimum temperature yesterday: 66 °F (at 12:20 AM)
Average temperature yesterday: 70 °F

Past Weeks' High & Low Weather Summary

 TemperatureHumidityPressure
High93 °F (Jul 19, 4:20 PM)100% (Jul 17, 4:50 AM)30.18 "Hg (Jul 17, 4:50 AM)
Low59 °F (Jul 17, 4:50 AM)23% (Jul 18, 6:20 PM)29.71 "Hg (Jul 29, 4:50 PM)
Average73 °F68%29.94 "Hg
* Reported Jul 15 4:20 PM — Jul 30 4:20 PM, Gross-Gerau, Weather by CustomWeather, © 2014

Note: Actual official high and low records may vary slightly from our data, if they occured in-between our weather recording intervals... More about our weather records

Advertising

Gross-Gerau weather history for previous 24 hours

 ConditionsComfort  
Time TempWeatherWind HumidityBarometerVisibility
4:20 PM
Jul 30
72 °FPartly sunny.10 mph73%29.89 "HgN/A
3:50 PM73 °FPartly sunny.8 mph69%29.86 "HgN/A
3:20 PM72 °FBroken clouds.10 mph73%29.86 "HgN/A
2:50 PM72 °FBroken clouds.10 mph73%29.86 "HgN/A
2:20 PM72 °FBroken clouds.12 mph73%29.86 "HgN/A
1:50 PM72 °FBroken clouds.13 mph78%29.83 "HgN/A
1:20 PM72 °FBroken clouds.14 mph83%29.83 "HgN/A
12:50 PM72 °FBroken clouds.12 mph83%29.83 "HgN/A
12:20 PM72 °FBroken clouds.10 mph78%29.83 "HgN/A
11:50 AM72 °FBroken clouds.7 mph83%29.83 "HgN/A
11:20 AM72 °FBroken clouds.7 mph83%29.80 "HgN/A
10:50 AM70 °FPartly sunny.8 mph94%29.80 "HgN/A
10:20 AM70 °FPartly sunny.3 mph88%29.83 "HgN/A
9:50 AM70 °FLight rain. Partly sunny.2 mph83%29.80 "HgN/A
9:20 AM68 °FLight rain. Mostly cloudy.2 mph88%29.80 "HgN/A
8:50 AM68 °FLight rain. Mostly cloudy.2 mph94%29.80 "HgN/A
8:20 AM68 °FLight rain. Mostly cloudy.5 mph94%29.80 "HgN/A
7:50 AM68 °FLight rain. More clouds than sun.6 mph94%29.77 "HgN/A
7:20 AM68 °FLight rain. More clouds than sun.3 mph94%29.77 "HgN/A
6:50 AM68 °FLight rain. Mostly cloudy.5 mph94%29.77 "HgN/A
6:20 AM68 °FLight rain. Passing clouds.3 mph94%29.77 "HgN/A
5:50 AM68 °FLight rain. Passing clouds.3 mph100%29.77 "HgN/A
5:20 AM68 °FLight rain. Passing clouds.3 mph100%29.77 "HgN/A
4:50 AM68 °FLight rain. Passing clouds.3 mph100%29.77 "HgN/A
4:20 AM66 °FRain showers. Partly cloudy.3 mph100%29.74 "HgN/A
3:50 AM66 °FRain showers. Passing clouds.3 mph100%29.74 "HgN/A
3:20 AM68 °FRain showers. Passing clouds.5 mph100%29.77 "HgN/A
2:50 AM68 °FSprinkles. Passing clouds.5 mph94%29.77 "HgN/A
2:20 AM68 °FSprinkles. Passing clouds.5 mph94%29.77 "HgN/A
1:50 AM68 °FPassing clouds.7 mph100%29.74 "HgN/A
1:20 AM66 °FPassing clouds.5 mph100%29.77 "HgN/A
12:50 AM66 °FPartly cloudy.2 mph100%29.77 "HgN/A
12:20 AM66 °FPartly cloudy.3 mph100%29.77 "HgN/A
11:50 PM
Jul 29
66 °FClear.3 mph100%29.77 "Hg10 mi
11:20 PM68 °FClear.3 mph100%29.77 "Hg10 mi
10:50 PM68 °FClear.5 mph94%29.77 "Hg10 mi
10:20 PM68 °FPassing clouds.3 mph94%29.77 "HgN/A
9:50 PM68 °FScattered showers. Partly sunny.3 mph94%29.77 "HgN/A
9:20 PM68 °FSprinkles. Broken clouds.5 mph100%29.77 "HgN/A
8:50 PM68 °FRain showers. Broken clouds.6 mph100%29.77 "Hg5 mi
8:20 PM68 °FLots of rain. Partly sunny.3 mph100%29.77 "Hg1 mi
7:50 PM68 °FSprinkles. Partly sunny.7 mph100%29.77 "HgN/A
7:20 PM70 °FThundershowers. Broken clouds.3 mph94%29.74 "HgN/A
6:50 PM68 °FThunderstorms. Broken clouds.2 mph94%29.74 "HgN/A
6:20 PM68 °FStrong thunderstorms. Partly sunny.2 mph94%29.77 "HgN/A
5:50 PM68 °FStrong thunderstorms. Partly sunny.7 mph94%29.74 "Hg1 mi
5:20 PM77 °FThunderstorms. Broken clouds.12 mph74%29.74 "HgN/A
Weather by CustomWeather, © 2014

See weather overviewHow to use our weather pages